Location: Cossonay
(46.5833°N, 6.4167°E)
Time: 22:28:33
(UTC+00:00)

Lacrosse 4 Rocket - Pass Details

Date: 07 June 2020
Orbit: 541 x 618 km, 68.0° (Epoch: 11 July)

Event Time Altitude Azimuth Distance (km) Brightness Sun altitude
Rises 01:02:20 0° 313° (NW) 2,821 5.2 -17.8°
Reaches altitude 10° 01:05:21 10° 291° (WNW) 1,897 4.0 -17.6°
Enters shadow 01:07:18 15° 264° (W) 1,578 3.4 -17.4°
